Breckenridge, TX

7:34 AM CDT on October 24, 2017 (GMT -0500)
Stephens County

Weather History for KBKD - July, 2013

Change the Weather History Date:

Sunday, July 14, 2013

  Actual Average (KMWL) Record (KMWL)
Temperature  
Mean Temperature 78 °F -  
Max Temperature 87 °F 94 °F 106 °F (2011)
Min Temperature 66 °F 71 °F 66 °F (2002)
Cooling Degree Days 13    
Growing Degree Days 28 (Base 50)    
Moisture  
Dew Point 60 °F    
Average Humidity 58    
Maximum Humidity 96    
Minimum Humidity 35    
Precipitation  
Precipitation 0.01 in - - ()
Sea Level Pressure  
Sea Level Pressure 29.96 in    
Wind  
Wind Speed 11 mph (ESE)    
Max Wind Speed 25 mph    
Max Gust Speed 32 mph    
Visibility 9 miles    
Events Rain , Thunderstorm    
Averages and records for this station are not official NWS values.
T = Trace of Precipitation, MM = Missing Value Source: NWS Daily Summary

Daily Weather History Graph

Daily Weather History Graph

Search for Another Location

Airport or City:

Trip Planner

Search our weather history database for the weather conditions in past years. The results will help you decide how hot, cold, wet, or windy it might be!

Date:

Astronomy

Jul. 14, 2013 Rise Set
Actual Time 6:38 AM CDT 8:44 PM CDT
Civil Twilight 6:10 AM CDT 9:12 PM CDT
Nautical Twilight 5:36 AM CDT 9:46 PM CDT
Astronomical Twilight 4:59 AM CDT 10:23 PM CDT
Moon 12:32 PM CDT (7/14) No Moon Set
Length of Visible Light 15h 02m
Length of Day
14h 06m
Waxing Crescent, 35% of the Moon is Illuminated
Jul 14
Waxing Crescent
Jul 15
First Quarter
Jul 22
Full
Jul 29
Last Quarter
Aug 6
New

Hourly Weather History & Observations

Time (CDT) Temp. Heat Index Dew Point Humidity Pressure Visibility Wind Dir Wind Speed Gust Speed Precip Events Conditions
12:15 AM 89.2 °F 88.2 °F 58.1 °F 35% 29.93 in 10.0 mi SE 12.7 mph - N/A   Clear
12:35 AM 88.7 °F 87.5 °F 57.7 °F 35% 29.94 in 10.0 mi SE 11.5 mph 16.1 mph N/A   Clear
12:55 AM 88.0 °F 86.9 °F 57.7 °F 36% 29.94 in 10.0 mi SE 8.1 mph - N/A   Clear
1:15 AM 87.4 °F 86.1 °F 56.8 °F 35% 29.93 in 10.0 mi SE 10.4 mph 16.1 mph N/A   Clear
1:35 AM 86.9 °F 85.5 °F 56.5 °F 35% 29.93 in 10.0 mi SSE 10.4 mph - N/A   Clear
1:55 AM 86.4 °F 85.1 °F 56.5 °F 36% 29.93 in 10.0 mi SE 9.2 mph - N/A   Clear
2:15 AM 85.3 °F 84.3 °F 56.8 °F 38% 29.93 in 10.0 mi SE 5.8 mph - N/A   Clear
2:35 AM 84.6 °F 83.7 °F 57.4 °F 39% 29.92 in 10.0 mi SE 5.8 mph - N/A   Clear
2:55 AM 83.3 °F 82.9 °F 58.1 °F 42% 29.91 in 10.0 mi SSE 6.9 mph - N/A   Clear
3:15 AM 83.7 °F 83.1 °F 57.7 °F 41% 29.91 in 10.0 mi SSE 6.9 mph - N/A   Clear
3:35 AM 83.5 °F 82.9 °F 57.7 °F 41% 29.90 in 10.0 mi SSE 8.1 mph - N/A   Clear
3:55 AM 82.6 °F 82.3 °F 57.7 °F 43% 29.91 in 10.0 mi ESE 6.9 mph - N/A   Clear
4:15 AM 81.5 °F 81.5 °F 57.9 °F 44% 29.91 in 10.0 mi South 4.6 mph - N/A   Clear
4:35 AM 79.9 °F - 58.5 °F 48% 29.89 in 10.0 mi SSW 3.5 mph - N/A   Clear
4:55 AM 79.9 °F - 58.1 °F 47% 29.90 in 10.0 mi ESE 4.6 mph - N/A   Clear
5:15 AM 78.8 °F - 58.3 °F 49% 29.89 in 10.0 mi East 3.5 mph - N/A   Clear
5:35 AM 78.8 °F - 57.9 °F 49% 29.89 in 7.0 mi Calm Calm - N/A   Clear
5:55 AM 78.6 °F - 57.7 °F 49% 29.88 in 10.0 mi Calm Calm - N/A   Clear
6:15 AM 77.9 °F - 57.4 °F 49% 29.88 in 10.0 mi Calm Calm - N/A   Clear
6:35 AM 77.4 °F - 57.9 °F 51% 29.89 in 10.0 mi East 3.5 mph - N/A   Clear
6:55 AM 77.2 °F - 57.9 °F 51% 29.91 in 10.0 mi East 12.7 mph 18.4 mph N/A   Scattered Clouds
7:15 AM 78.8 °F - 57.2 °F 47% 29.92 in 10.0 mi East 15.0 mph - N/A   Scattered Clouds
7:35 AM 78.8 °F - 56.5 °F 46% 29.93 in 10.0 mi East 12.7 mph 20.7 mph N/A   Mostly Cloudy
7:55 AM 78.8 °F - 55.2 °F 44% 29.93 in 10.0 mi East 13.8 mph 24.2 mph N/A   Mostly Cloudy
8:15 AM 78.8 °F - 56.3 °F 46% 29.94 in 10.0 mi ESE 25.3 mph 32.2 mph N/A   Scattered Clouds
8:35 AM 78.6 °F - 58.1 °F 49% 29.95 in 10.0 mi East 19.6 mph 31.1 mph N/A   Scattered Clouds
8:55 AM 79.7 °F - 59.7 °F 50% 29.96 in 10.0 mi ESE 16.1 mph 24.2 mph N/A   Clear
9:15 AM 78.1 °F - 60.6 °F 55% 29.96 in 10.0 mi ESE 17.3 mph 25.3 mph N/A   Clear
9:35 AM 78.1 °F - 61.3 °F 56% 29.96 in 10.0 mi ESE 20.7 mph 25.3 mph N/A   Clear
9:55 AM 77.9 °F - 61.7 °F 57% 29.98 in 10.0 mi ESE 13.8 mph 24.2 mph N/A   Mostly Cloudy
10:15 AM 78.1 °F - 61.9 °F 57% 29.98 in 10.0 mi East 16.1 mph 20.7 mph N/A   Mostly Cloudy
10:35 AM 79.3 °F - 61.7 °F 55% 29.98 in 10.0 mi ESE 18.4 mph 21.9 mph N/A   Scattered Clouds
10:55 AM 79.5 °F - 61.3 °F 54% 29.98 in 10.0 mi ESE 20.7 mph 26.5 mph N/A   Mostly Cloudy
11:15 AM 80.2 °F 81.0 °F 60.1 °F 50% 29.98 in 10.0 mi East 15.0 mph 31.1 mph N/A   Scattered Clouds
11:35 AM 81.7 °F 82.0 °F 59.4 °F 47% 29.99 in 10.0 mi East 15.0 mph 26.5 mph N/A   Clear
11:55 AM 81.3 °F 82.2 °F 61.3 °F 51% 29.99 in 10.0 mi East 19.6 mph 26.5 mph N/A   Clear
12:15 PM 82.2 °F 83.0 °F 61.7 °F 50% 29.99 in 10.0 mi East 16.1 mph - N/A   Clear
12:35 PM 81.5 °F 82.4 °F 61.7 °F 51% 29.99 in 10.0 mi East 18.4 mph 23.0 mph N/A   Clear
12:55 PM 80.8 °F 82.0 °F 62.8 °F 54% 29.99 in 10.0 mi East 18.4 mph 23.0 mph N/A   Clear
1:15 PM 81.5 °F 81.8 °F 59.7 °F 47% 29.98 in 10.0 mi East 16.1 mph 24.2 mph N/A   Clear
1:35 PM 80.8 °F 81.2 °F 59.0 °F 47% 29.98 in 10.0 mi ESE 19.6 mph 26.5 mph N/A   Clear
1:55 PM 80.4 °F 81.1 °F 59.7 °F 49% 29.97 in 10.0 mi ESE 17.3 mph 25.3 mph N/A   Clear
2:15 PM 80.6 °F 81.0 °F 58.8 °F 47% 29.97 in 10.0 mi ESE 16.1 mph 23.0 mph N/A   Clear
2:35 PM 81.0 °F 81.2 °F 58.6 °F 46% 29.97 in 10.0 mi ESE 19.6 mph 27.6 mph N/A   Clear
2:55 PM 80.8 °F 81.2 °F 58.6 °F 47% 29.96 in 10.0 mi ESE 21.9 mph 25.3 mph N/A   Clear
3:15 PM 80.6 °F 80.9 °F 58.3 °F 46% 29.96 in 10.0 mi ESE 15.0 mph 26.5 mph N/A   Clear
3:35 PM 79.2 °F - 58.1 °F 48% 29.96 in 10.0 mi East 18.4 mph 21.9 mph N/A   Clear
3:55 PM 78.3 °F - 58.3 °F 50% 29.96 in 10.0 mi ESE 18.4 mph 25.3 mph N/A   Clear
4:15 PM 77.7 °F - 58.1 °F 51% 29.96 in 10.0 mi East 18.4 mph 21.9 mph N/A   Clear
4:35 PM 76.5 °F - 58.3 °F 53% 29.96 in 10.0 mi East 17.3 mph 24.2 mph N/A   Clear
4:55 PM 76.5 °F - 58.8 °F 54% 29.95 in 10.0 mi ESE 16.1 mph 19.6 mph N/A   Clear
5:15 PM 76.1 °F - 59.2 °F 56% 29.95 in 10.0 mi ESE 13.8 mph - N/A   Clear
5:35 PM 75.2 °F - 59.2 °F 57% 29.93 in 10.0 mi ESE 18.4 mph 23.0 mph N/A   Clear
5:55 PM 75.0 °F - 59.9 °F 59% 29.96 in 10.0 mi East 9.2 mph 23.0 mph N/A   Clear
6:15 PM 74.3 °F - 60.8 °F 63% 29.96 in 10.0 mi East 11.5 mph 17.3 mph N/A   Light Drizzle
6:35 PM 73.0 °F - 62.2 °F 69% 29.96 in 10.0 mi ESE 8.1 mph - N/A Rain Light Rain
6:55 PM 72.7 °F - 62.8 °F 71% 29.96 in 10.0 mi East 10.4 mph - N/A   Light Drizzle
7:15 PM 71.8 °F - 62.8 °F 73% 29.98 in 10.0 mi ENE 8.1 mph - N/A Rain Light Rain
7:35 PM 70.7 °F - 63.5 °F 78% 29.98 in 10.0 mi East 9.2 mph - N/A   Light Drizzle
7:55 PM 69.4 °F - 65.5 °F 87% 30.00 in 3.0 mi ENE 6.9 mph - N/A Rain Heavy Rain
8:15 PM 68.5 °F - 66.7 °F 94% 30.00 in 2.5 mi ENE 10.4 mph - N/A Rain Heavy Rain
8:35 PM 68.4 °F - 67.1 °F 96% 30.01 in 7.0 mi ENE 6.9 mph - N/A Rain Light Rain
8:55 PM 68.2 °F - 66.7 °F 95% 30.00 in 7.0 mi East 4.6 mph - N/A Rain Rain
9:15 PM 68.2 °F - 67.1 °F 96% 29.99 in 5.0 mi ENE 4.6 mph - N/A Rain Rain
9:35 PM 68.0 °F - 66.6 °F 95% 29.99 in 10.0 mi Calm Calm - N/A Rain Rain
9:55 PM 68.0 °F - 66.4 °F 95% 29.98 in 7.0 mi East 3.5 mph - N/A Rain Rain
10:15 PM 68.0 °F - 65.8 °F 93% 29.98 in 10.0 mi Calm Calm - N/A Rain , Thunderstorm Light Thunderstorms and Rain
10:35 PM 68.0 °F - 66.0 °F 93% 29.99 in 10.0 mi SW 6.9 mph - N/A Rain Rain
10:55 PM 68.0 °F - 66.2 °F 94% 30.00 in 5.0 mi SSE 3.5 mph - N/A Rain Rain
11:15 PM 67.6 °F - 66.4 °F 96% 30.03 in 7.0 mi Calm Calm - N/A Rain Rain
11:35 PM 67.3 °F - 65.8 °F 95% 30.03 in 3.0 mi Calm Calm - N/A Rain Rain
11:55 PM 66.9 °F - 65.3 °F 95% 30.03 in 5.0 mi NE 9.2 mph - 0.01 in Rain Rain